This demonstration page uses our WeatherBlox Daily Observations layout. Learn more.

Left ArrowRight Arrow

Hourly Observations for July 4, 2022

Temp ( °F °C ) Dew Point ( °F °C ) Humidity (%) Winds ( mph kmh ) Pressure ( in mb ) Visibility ( mi km ) Precip ( " mm )
12:15 am 00:15 Clear 70 21 64 18 83 83 W 3 6 30.13 1020 10 16 0.00 0.00
12:35 am 00:35 undefined 68 20 64 18 88 88 W 3 6 30.14 1021 N/A 0.00 0.00
12:55 am 00:55 undefined 70 21 64 18 83 83 NNW 3 6 30.13 1020 N/A 0.00 0.00
1:15 am 01:15 undefined 68 20 64 18 88 88 N 3 6 30.13 1020 N/A 0.00 0.00
1:35 am 01:35 Clear 70 21 64 18 83 83 N 3 6 30.13 1020 N/A 0.00 0.00
1:55 am 01:55 Clear 68 20 63 17 83 83 Calm 30.14 1021 N/A 0.00 0.00
2:15 am 02:15 undefined 68 20 64 18 88 88 Calm 30.15 1021 N/A 0.00 0.00
2:35 am 02:35 undefined 66 19 63 17 88 88 Calm 30.15 1021 N/A 0.00 0.00
2:55 am 02:55 undefined 64 18 64 18 100 100 NW 3 6 30.14 1021 N/A 0.00 0.00
3:15 am 03:15 undefined 66 19 63 17 88 88 NW 3 6 30.14 1021 N/A 0.00 0.00
3:35 am 03:35 undefined 66 19 63 17 88 88 Calm 30.14 1021 N/A 0.00 0.00
3:55 am 03:55 Clear 68 20 61 16 78 78 N 6 9 30.14 1021 N/A 0.00 0.00
4:15 am 04:15 Clear 68 20 57 14 69 69 N 7 11 30.15 1021 N/A 0.00 0.00
4:35 am 04:35 Clear 70 21 55 13 60 60 N 6 9 30.15 1021 10 16 0.00 0.00
4:55 am 04:55 Clear 70 21 55 13 60 60 NNE 7 11 30.16 1021 10 16 0.00 0.00
5:15 am 05:15 Clear 68 20 55 13 64 64 NNE 6 9 30.16 1021 10 16 0.00 0.00
5:35 am 05:35 Clear 68 20 55 13 64 64 NNE 6 9 30.16 1021 10 16 0.00 0.00
5:55 am 05:55 Sunny 68 20 55 13 64 64 NNE 6 9 30.17 1022 10 16 0.00 0.00
6:15 am 06:15 Sunny 66 19 55 13 68 68 NNE 6 9 30.17 1022 10 16 0.00 0.00
6:35 am 06:35 Sunny 66 19 55 13 68 68 NNE 5 7 30.18 1022 10 16 0.00 0.00
6:55 am 06:55 Sunny 68 20 55 13 64 64 NNE 3 6 30.19 1022 10 16 0.00 0.00
7:15 am 07:15 Sunny 66 19 59 15 78 78 Calm 30.19 1022 10 16 0.00 0.00
7:35 am 07:35 Sunny 70 21 57 14 64 64 NNE 3 6 30.20 1023 10 16 0.00 0.00
7:55 am 07:55 Sunny 70 21 55 13 60 60 Calm 30.20 1023 10 16 0.00 0.00
8:15 am 08:15 Sunny 72 22 57 14 61 61 NNE 5 7 30.21 1023 10 16 0.00 0.00
8:35 am 08:35 Sunny 73 23 55 13 53 53 NE 5 7 30.22 1023 10 16 0.00 0.00
8:55 am 08:55 Sunny 73 23 55 13 53 53 NNE 7 11 30.22 1023 10 16 0.00 0.00
9:15 am 09:15 Sunny 75 24 54 12 47 47 NNE 7 11 30.23 1024 10 16 0.00 0.00
9:35 am 09:35 Sunny 77 25 54 12 44 44 NE 5 7 30.21 1023 10 16 0.00 0.00
9:55 am 09:55 Sunny 77 25 54 12 44 44 ENE 5 7 30.21 1023 10 16 0.00 0.00
10:15 am 10:15 Sunny 77 25 54 12 44 44 NE 6 9 30.21 1023 10 16 0.00 0.00
10:35 am 10:35 Sunny 79 26 55 13 45 45 NE 5 7 30.21 1023 10 16 0.00 0.00
10:55 am 10:55 Sunny 79 26 55 13 45 45 NNE 7 11 30.22 1023 N/A 0.00 0.00
11:15 am 11:15 Sunny 79 26 55 13 45 45 Calm 30.21 1023 10 16 0.00 0.00
11:35 am 11:35 Sunny 81 27 55 13 42 42 Calm 30.21 1023 10 16 0.00 0.00
11:55 am 11:55 Sunny 81 27 55 13 42 42 Calm 30.21 1023 10 16 0.00 0.00
12:15 pm 12:15 Sunny 81 27 55 13 42 42 NE 3 6 30.20 1023 10 16 0.00 0.00
12:35 pm 12:35 Sunny 81 27 55 13 42 42 N 3 6 30.21 1023 10 16 0.00 0.00
12:55 pm 12:55 Sunny 84 29 57 14 40 40 NW 5 7 30.20 1023 10 16 0.00 0.00
1:35 pm 13:35 Sunny 84 29 59 15 43 43 WSW 5 7 30.19 1022 10 16 0.00 0.00
1:55 pm 13:55 Sunny 84 29 59 15 43 43 N 7 11 30.18 1022 10 16 0.00 0.00
2:15 pm 14:15 Sunny 84 29 61 16 45 45 W 7 11 30.17 1022 10 16 0.00 0.00
2:55 pm 14:55 Sunny 86 30 61 16 43 43 SW 8 13 30.16 1021 10 16 0.00 0.00
3:15 pm 15:15 Sunny 86 30 59 15 40 40 W 7 11 30.16 1021 10 16 0.00 0.00
3:35 pm 15:35 Sunny 86 30 61 16 43 43 W 5 7 30.16 1021 10 16 0.00 0.00
3:55 pm 15:55 Sunny 86 30 59 15 40 40 Calm 30.15 1021 10 16 0.00 0.00
4:15 pm 16:15 Sunny 86 30 59 15 40 40 W 6 9 30.15 1021 10 16 0.00 0.00
4:35 pm 16:35 Sunny 86 30 59 15 40 40 WNW 5 7 30.15 1021 10 16 0.00 0.00
4:55 pm 16:55 Sunny 86 30 61 16 43 43 WNW 7 11 30.14 1021 10 16 0.00 0.00
5:15 pm 17:15 Sunny 86 30 61 16 43 43 NW 5 7 30.13 1020 10 16 0.00 0.00
5:35 pm 17:35 Sunny 86 30 61 16 43 43 W 3 6 30.13 1020 N/A 0.00 0.00
5:55 pm 17:55 Sunny 86 30 59 15 40 40 W 3 6 30.14 1021 10 16 0.00 0.00
6:15 pm 18:15 Sunny 86 30 61 16 43 43 WNW 3 6 30.13 1020 10 16 0.00 0.00
6:35 pm 18:35 Sunny 86 30 61 16 43 43 W 3 6 30.13 1020 10 16 0.00 0.00
6:55 pm 18:55 Sunny 86 30 61 16 43 43 Calm 30.13 1020 10 16 0.00 0.00
7:15 pm 19:15 Sunny 86 30 59 15 40 40 Calm 30.13 1020 10 16 0.00 0.00
7:35 pm 19:35 Sunny 82 28 61 16 48 48 Calm 30.13 1020 10 16 0.00 0.00
7:55 pm 19:55 Sunny 82 28 61 16 48 48 N 3 6 30.13 1020 10 16 0.00 0.00
8:15 pm 20:15 Sunny 82 28 59 15 45 45 Calm 30.13 1020 N/A 0.00 0.00
8:35 pm 20:35 Sunny 81 27 59 15 48 48 Calm 30.13 1020 N/A 0.00 0.00
8:55 pm 20:55 Clear 81 27 59 15 48 48 ESE 3 6 30.13 1020 10 16 0.00 0.00
9:15 pm 21:15 Clear 77 25 61 16 57 57 Calm 30.14 1021 10 16 0.00 0.00
9:35 pm 21:35 Clear 73 23 66 19 78 78 Calm 30.15 1021 10 16 0.00 0.00
9:55 pm 21:55 Clear 73 23 64 18 74 74 Calm 30.16 1021 10 16 0.00 0.00
10:15 pm 22:15 Clear 72 22 64 18 78 78 Calm 30.17 1022 10 16 0.00 0.00
10:35 pm 22:35 Clear 72 22 64 18 78 78 Calm 30.17 1022 10 16 0.00 0.00
10:55 pm 22:55 Clear 72 22 64 18 78 78 Calm 30.16 1021 10 16 0.00 0.00
11:15 pm 23:15 Clear 70 21 64 18 83 83 Calm 30.15 1021 10 16 0.00 0.00
11:35 pm 23:35 Clear 70 21 64 18 83 83 Calm 30.15 1021 10 16 0.00 0.00
11:55 pm 23:55 Clear 68 20 64 18 88 88 Calm 30.15 1021 10 16 0.00 0.00

Powered by AerisWeather